METAR Formatted Surface Weather Observation
Issued by NWS

Home | Current Version | Previous Version | Text Only | Print | Product List | Glossary On
Versions: 1 2 3 4 5 6 7 8 9 10 11 12 13 14
000
SAUS41 KCAR 212057
MTRGNR
METAR KGNR 212056Z AUTO 16006KT 02/M03 A2985 RMK AO1 SLP129
T00221033 53002



USA.gov is the U.S. government's official web portal to all federal, state and local government web resources and services.